SWA563 KBNA-KCLT

Flight info

Callsign SWA563
Flight time 0h 53m
Altitude 37000
Route TAZMO4 BURME COMDY FILPZ4
Aircraft B737/M-SADE2E3GIJ4RWZ/LB1D1

Departure

Time 2026-05-08 01:07
Airport Nashville International Airport (KBNA)

Arrival

Time 2026-05-08 02:00
Airport Charlotte Douglas International Airport (KCLT)
Time Latitude Longitude Altitude Speed Heading
2026-05-08 00:25 36.12796 -86.66650 569 ft 0 kts 92°
2026-05-08 00:51 36.12796 -86.66654 569 ft 3 kts 92°
2026-05-08 00:52 36.12798 -86.66688 569 ft 4 kts 97°
2026-05-08 00:52 36.12801 -86.66710 570 ft 4 kts 107°
2026-05-08 00:52 36.12812 -86.66736 576 ft 4 kts 152°
2026-05-08 00:52 36.12819 -86.66740 575 ft 1 kts 166°
2026-05-08 00:57 36.12811 -86.66737 574 ft 3 kts 166°
2026-05-08 00:57 36.12784 -86.66734 571 ft 5 kts 179°
2026-05-08 00:57 36.12754 -86.66739 568 ft 4 kts 191°
2026-05-08 00:57 36.12737 -86.66743 568 ft 0 kts 191°
2026-05-08 00:58 36.12716 -86.66769 570 ft 7 kts 232°
2026-05-08 00:58 36.12681 -86.66815 570 ft 7 kts 219°
2026-05-08 00:58 36.12637 -86.66850 569 ft 8 kts 211°
2026-05-08 00:58 36.12589 -86.66882 573 ft 8 kts 208°
2026-05-08 00:59 36.12541 -86.66915 571 ft 8 kts 211°
2026-05-08 00:59 36.12513 -86.66936 571 ft 1 kts 208°
2026-05-08 00:59 36.12511 -86.66937 571 ft 0 kts 208°
2026-05-08 01:00 36.12491 -86.66951 575 ft 6 kts 208°
2026-05-08 01:00 36.12452 -86.66977 572 ft 6 kts 210°
2026-05-08 01:01 36.12412 -86.67002 572 ft 7 kts 192°
2026-05-08 01:01 36.12362 -86.66967 570 ft 11 kts 131°
2026-05-08 01:01 36.12309 -86.66889 575 ft 12 kts 128°
2026-05-08 01:01 36.12274 -86.66799 575 ft 12 kts 105°
2026-05-08 01:02 36.12252 -86.66704 569 ft 12 kts 106°
2026-05-08 01:02 36.12227 -86.66605 571 ft 12 kts 108°
2026-05-08 01:02 36.12170 -86.66553 568 ft 12 kts 193°
2026-05-08 01:02 36.12094 -86.66582 574 ft 11 kts 198°
2026-05-08 01:03 36.12021 -86.66612 581 ft 11 kts 198°
2026-05-08 01:03 36.11949 -86.66641 582 ft 11 kts 198°
2026-05-08 01:03 36.11872 -86.66671 579 ft 12 kts 198°
2026-05-08 01:03 36.11797 -86.66701 582 ft 11 kts 198°
2026-05-08 01:04 36.11724 -86.66730 585 ft 11 kts 196°
2026-05-08 01:04 36.11651 -86.66758 586 ft 12 kts 197°
2026-05-08 01:04 36.11572 -86.66789 587 ft 12 kts 198°
2026-05-08 01:04 36.11495 -86.66819 590 ft 12 kts 198°
2026-05-08 01:05 36.11420 -86.66849 591 ft 11 kts 198°
2026-05-08 01:05 36.11352 -86.66880 591 ft 8 kts 197°
2026-05-08 01:05 36.11320 -86.66877 590 ft 0 kts 153°
2026-05-08 01:05 36.11319 -86.66876 590 ft 1 kts 148°
2026-05-08 01:06 36.11297 -86.66829 589 ft 10 kts 111°
2026-05-08 01:06 36.11318 -86.66751 590 ft 11 kts 26°
2026-05-08 01:06 36.11537 -86.66662 589 ft 71 kts 16°
2026-05-08 01:06 36.12260 -86.66377 576 ft 143 kts 19°
2026-05-08 01:07 36.13294 -86.65973 1075 ft 160 kts 15°
2026-05-08 01:07 36.14382 -86.65542 1902 ft 169 kts 24°
2026-05-08 01:07 36.15357 -86.64523 2295 ft 201 kts 44°
2026-05-08 01:07 36.16398 -86.63196 2557 ft 229 kts 44°
2026-05-08 01:08 36.17582 -86.61703 2974 ft 251 kts 44°
2026-05-08 01:08 36.18822 -86.60133 3820 ft 258 kts 44°
2026-05-08 01:08 36.20084 -86.58535 4718 ft 261 kts 45°
2026-05-08 01:08 36.21103 -86.56667 5612 ft 266 kts 66°
2026-05-08 01:09 36.21649 -86.54461 6479 ft 272 kts 73°
2026-05-08 01:09 36.22094 -86.52164 6854 ft 279 kts 87°
2026-05-08 01:09 36.21698 -86.49800 7038 ft 286 kts 110°
2026-05-08 01:09 36.20971 -86.47497 7026 ft 287 kts 109°
2026-05-08 01:10 36.20306 -86.45178 7023 ft 285 kts 107°
2026-05-08 01:10 36.19682 -86.42859 7032 ft 283 kts 109°
2026-05-08 01:10 36.18934 -86.40583 7148 ft 291 kts 113°
2026-05-08 01:10 36.18097 -86.38263 7970 ft 298 kts 114°
2026-05-08 01:11 36.17238 -86.35904 8904 ft 303 kts 114°
2026-05-08 01:11 36.16362 -86.33483 9754 ft 312 kts 114°
2026-05-08 01:11 36.15465 -86.30987 10449 ft 326 kts 114°
2026-05-08 01:11 36.14518 -86.28335 10956 ft 345 kts 114°
2026-05-08 01:12 36.13537 -86.25580 11685 ft 354 kts 115°
2026-05-08 01:12 36.12537 -86.22762 12491 ft 362 kts 115°
2026-05-08 01:12 36.11513 -86.19878 13282 ft 371 kts 115°
2026-05-08 01:12 36.10462 -86.16919 14068 ft 380 kts 116°
2026-05-08 01:13 36.09392 -86.13904 14850 ft 386 kts 116°
2026-05-08 01:13 36.08303 -86.10844 15693 ft 391 kts 116°
2026-05-08 01:13 36.07240 -86.07724 16497 ft 399 kts 110°
2026-05-08 01:13 36.06759 -86.04313 17257 ft 407 kts 94°
2026-05-08 01:14 36.06547 -86.00798 18105 ft 412 kts 93°
2026-05-08 01:14 36.06354 -85.97241 18809 ft 420 kts 94°
2026-05-08 01:14 36.06141 -85.93615 19510 ft 425 kts 94°
2026-05-08 01:14 36.05903 -85.89950 20224 ft 431 kts 95°
2026-05-08 01:15 36.05647 -85.86240 20927 ft 437 kts 95°
2026-05-08 01:15 36.05379 -85.82474 21602 ft 443 kts 95°
2026-05-08 01:15 36.05106 -85.78659 22297 ft 449 kts 95°
2026-05-08 01:15 36.04833 -85.74792 22983 ft 454 kts 95°
2026-05-08 01:16 36.04560 -85.70873 23668 ft 460 kts 95°
2026-05-08 01:16 36.04285 -85.66911 24194 ft 467 kts 95°
2026-05-08 01:16 36.04004 -85.62874 24664 ft 475 kts 95°
2026-05-08 01:16 36.03717 -85.58781 25125 ft 482 kts 95°
2026-05-08 01:17 36.03424 -85.54624 25593 ft 490 kts 95°
2026-05-08 01:17 36.03124 -85.50398 26069 ft 497 kts 96°
2026-05-08 01:17 36.02818 -85.46114 26534 ft 504 kts 96°
2026-05-08 01:17 36.02507 -85.41776 27000 ft 511 kts 96°
2026-05-08 01:18 36.02193 -85.37427 27417 ft 518 kts 96°
2026-05-08 01:18 36.01869 -85.32963 27850 ft 525 kts 96°
2026-05-08 01:18 36.01540 -85.28444 28291 ft 532 kts 96°
2026-05-08 01:18 36.01200 -85.23809 28737 ft 538 kts 97°
2026-05-08 01:19 36.00865 -85.19241 29169 ft 544 kts 97°
2026-05-08 01:19 36.00518 -85.14553 29591 ft 550 kts 97°
2026-05-08 01:19 36.00167 -85.09816 29997 ft 556 kts 97°
2026-05-08 01:19 35.99810 -85.05039 30348 ft 562 kts 97°
2026-05-08 01:20 35.99473 -85.00193 30687 ft 567 kts 96°
2026-05-08 01:20 35.99171 -84.95324 31070 ft 571 kts 96°
2026-05-08 01:20 35.98887 -84.90423 31490 ft 573 kts 96°
2026-05-08 01:20 35.98606 -84.85509 31982 ft 573 kts 96°
2026-05-08 01:21 35.98322 -84.80603 32477 ft 573 kts 96°
2026-05-08 01:21 35.98031 -84.75698 32996 ft 572 kts 96°
2026-05-08 01:21 35.97732 -84.70806 33503 ft 571 kts 96°
2026-05-08 01:21 35.97429 -84.65933 33988 ft 570 kts 97°
2026-05-08 01:22 35.97122 -84.61051 34453 ft 567 kts 97°
2026-05-08 01:22 35.96816 -84.56219 34876 ft 566 kts 97°
2026-05-08 01:22 35.96506 -84.51373 35283 ft 564 kts 97°
2026-05-08 01:22 35.96197 -84.46556 35683 ft 563 kts 97°
2026-05-08 01:23 35.95885 -84.41729 36062 ft 562 kts 96°
2026-05-08 01:23 35.95574 -84.36921 36430 ft 561 kts 97°
2026-05-08 01:23 35.95262 -84.32140 36851 ft 558 kts 96°
2026-05-08 01:23 35.94948 -84.27350 37042 ft 562 kts 97°
2026-05-08 01:24 35.94629 -84.22531 37014 ft 564 kts 97°
2026-05-08 01:24 35.93993 -84.12966 37004 ft 555 kts 97°
2026-05-08 01:25 35.93356 -84.03509 37031 ft 554 kts 97°
2026-05-08 01:25 35.92708 -83.94030 37040 ft 555 kts 97°
2026-05-08 01:26 35.92051 -83.84513 37032 ft 557 kts 97°
2026-05-08 01:26 35.91386 -83.74985 37034 ft 558 kts 97°
2026-05-08 01:27 35.90712 -83.65435 37022 ft 559 kts 97°
2026-05-08 01:27 35.90031 -83.55886 37008 ft 559 kts 97°
2026-05-08 01:28 35.89321 -83.46361 36997 ft 556 kts 101°
2026-05-08 01:28 35.87510 -83.37210 37019 ft 546 kts 113°
2026-05-08 01:29 35.85294 -83.28265 37013 ft 545 kts 112°
2026-05-08 01:29 35.83253 -83.19327 37005 ft 544 kts 112°
2026-05-08 01:29 35.82131 -83.14863 36806 ft 545 kts 117°
2026-05-08 01:30 35.80731 -83.10552 36552 ft 539 kts 122°
2026-05-08 01:30 35.79708 -83.07694 36335 ft 537 kts 122°
2026-05-08 01:30 35.78141 -83.03539 35873 ft 532 kts 125°
2026-05-08 01:30 35.76508 -82.99466 35352 ft 530 kts 126°
2026-05-08 01:31 35.74887 -82.95489 34833 ft 530 kts 126°
2026-05-08 01:31 35.73195 -82.91354 34266 ft 531 kts 126°
2026-05-08 01:31 35.71531 -82.87292 33666 ft 532 kts 126°
2026-05-08 01:31 35.69887 -82.83279 33077 ft 531 kts 126°
2026-05-08 01:32 35.68363 -82.79137 32519 ft 540 kts 114°
2026-05-08 01:32 35.67602 -82.74578 32076 ft 548 kts 96°
2026-05-08 01:32 35.67755 -82.69888 31627 ft 549 kts 77°
2026-05-08 01:32 35.68814 -82.65418 31294 ft 545 kts 60°
2026-05-08 01:33 35.70442 -82.61178 30812 ft 554 kts 55°
2026-05-08 01:33 35.72223 -82.56983 30232 ft 552 kts 53°
2026-05-08 01:33 35.74020 -82.52842 29833 ft 545 kts 53°
2026-05-08 01:33 35.75799 -82.48751 29466 ft 536 kts 53°
2026-05-08 01:34 35.77543 -82.44741 29178 ft 527 kts 53°
2026-05-08 01:34 35.79264 -82.40793 28907 ft 523 kts 53°
2026-05-08 01:34 35.81002 -82.36830 28704 ft 528 kts 53°
2026-05-08 01:34 35.82748 -82.32854 28416 ft 530 kts 53°
2026-05-08 01:35 35.84501 -82.28874 28168 ft 526 kts 53°
2026-05-08 01:35 35.86242 -82.24928 27919 ft 522 kts 53°
2026-05-08 01:35 35.87979 -82.21008 27644 ft 519 kts 53°
2026-05-08 01:35 35.89703 -82.17116 27389 ft 514 kts 54°
2026-05-08 01:36 35.90967 -82.12973 27047 ft 522 kts 74°
2026-05-08 01:36 35.91356 -82.08548 26771 ft 518 kts 92°
2026-05-08 01:36 35.90897 -82.04186 26476 ft 508 kts 108°
2026-05-08 01:36 35.89708 -82.00162 26188 ft 493 kts 124°
2026-05-08 01:37 35.87970 -81.96586 25926 ft 481 kts 135°
2026-05-08 01:37 35.85817 -81.93501 25448 ft 467 kts 149°
2026-05-08 01:37 35.83325 -81.91049 24939 ft 454 kts 154°
2026-05-08 01:37 35.80811 -81.88722 24393 ft 451 kts 154°
2026-05-08 01:38 35.78300 -81.86411 23842 ft 448 kts 153°
2026-05-08 01:38 35.75812 -81.84106 23247 ft 445 kts 152°
2026-05-08 01:38 35.73375 -81.81821 22637 ft 435 kts 152°
2026-05-08 01:38 35.71000 -81.79576 22099 ft 429 kts 152°
2026-05-08 01:39 35.68659 -81.77358 21681 ft 422 kts 152°
2026-05-08 01:39 35.66372 -81.75193 21061 ft 421 kts 152°
2026-05-08 01:39 35.64050 -81.72995 20536 ft 418 kts 151°
2026-05-08 01:39 35.61755 -81.70825 19974 ft 417 kts 151°
2026-05-08 01:40 35.59466 -81.68660 19442 ft 413 kts 151°
2026-05-08 01:40 35.57189 -81.66511 18892 ft 411 kts 151°
2026-05-08 01:40 35.54928 -81.64378 18353 ft 409 kts 151°
2026-05-08 01:40 35.52678 -81.62257 17738 ft 408 kts 150°
2026-05-08 01:41 35.50435 -81.60142 17269 ft 399 kts 150°
2026-05-08 01:41 35.48280 -81.58104 16841 ft 384 kts 150°
2026-05-08 01:41 35.46196 -81.56139 16391 ft 372 kts 150°
2026-05-08 01:41 35.44168 -81.54231 15954 ft 362 kts 150°
2026-05-08 01:42 35.42198 -81.52381 15555 ft 352 kts 150°
2026-05-08 01:42 35.40276 -81.50577 15163 ft 344 kts 149°
2026-05-08 01:42 35.38512 -81.48582 14758 ft 352 kts 130°
2026-05-08 01:42 35.37402 -81.45918 14608 ft 350 kts 113°
2026-05-08 01:43 35.36586 -81.43107 14370 ft 351 kts 110°
2026-05-08 01:43 35.35808 -81.40226 14139 ft 352 kts 109°
2026-05-08 01:43 35.35037 -81.37376 13929 ft 352 kts 110°
2026-05-08 01:43 35.34266 -81.34575 13696 ft 351 kts 110°
2026-05-08 01:44 35.33476 -81.31752 13335 ft 349 kts 110°
2026-05-08 01:44 35.32674 -81.28923 12739 ft 353 kts 111°
2026-05-08 01:44 35.31884 -81.26149 12595 ft 338 kts 112°
2026-05-08 01:44 35.31111 -81.23440 12211 ft 336 kts 112°
2026-05-08 01:45 35.30346 -81.20766 11824 ft 330 kts 112°
2026-05-08 01:45 35.29594 -81.18132 11328 ft 326 kts 112°
2026-05-08 01:45 35.28853 -81.15537 11002 ft 317 kts 112°
2026-05-08 01:45 35.28147 -81.13061 10857 ft 302 kts 112°
2026-05-08 01:46 35.27448 -81.10645 10549 ft 299 kts 116°
2026-05-08 01:46 35.26334 -81.08573 10139 ft 289 kts 146°
2026-05-08 01:46 35.24638 -81.07335 9640 ft 284 kts 168°
2026-05-08 01:46 35.22737 -81.06876 9186 ft 276 kts 181°
2026-05-08 01:47 35.20828 -81.06698 8712 ft 274 kts 183°
2026-05-08 01:47 35.18994 -81.06556 8710 ft 252 kts 183°
2026-05-08 01:47 35.17305 -81.06423 8624 ft 237 kts 184°
2026-05-08 01:48 35.14046 -81.06166 7789 ft 234 kts 183°
2026-05-08 01:48 35.12426 -81.06029 7418 ft 232 kts 182°
2026-05-08 01:48 35.10815 -81.05889 7012 ft 232 kts 182°
2026-05-08 01:48 35.09200 -81.05748 6624 ft 234 kts 181°
2026-05-08 01:49 35.07585 -81.05606 6379 ft 232 kts 181°
2026-05-08 01:49 35.05977 -81.05479 6110 ft 230 kts 183°
2026-05-08 01:49 35.04376 -81.05446 5785 ft 231 kts 184°
2026-05-08 01:49 35.02760 -81.05424 5448 ft 233 kts 183°
2026-05-08 01:50 35.01135 -81.05379 5105 ft 237 kts 182°
2026-05-08 01:50 34.99479 -81.05295 4974 ft 236 kts 180°
2026-05-08 01:50 34.97867 -81.05195 4972 ft 233 kts 180°
2026-05-08 01:50 34.96218 -81.05092 4959 ft 235 kts 180°
2026-05-08 01:51 34.94607 -81.04997 4941 ft 232 kts 180°
2026-05-08 01:51 34.93021 -81.04911 4838 ft 219 kts 180°
2026-05-08 01:51 34.91611 -81.04426 4654 ft 212 kts 146°
2026-05-08 01:51 34.90688 -81.03084 4348 ft 207 kts 107°
2026-05-08 01:52 34.90526 -81.01375 4050 ft 197 kts 82°
2026-05-08 01:52 34.90596 -80.99696 4022 ft 202 kts 82°
2026-05-08 01:52 34.90796 -80.98029 3940 ft 193 kts 60°
2026-05-08 01:52 34.91649 -80.96898 3965 ft 178 kts 26°
2026-05-08 01:53 34.92749 -80.96194 3963 ft 180 kts 22°
2026-05-08 01:53 34.93875 -80.95518 3947 ft 180 kts 22°
2026-05-08 01:53 34.94979 -80.94853 3938 ft 179 kts 22°
2026-05-08 01:53 34.96113 -80.94176 3943 ft 177 kts 22°
2026-05-08 01:54 34.97219 -80.93515 3940 ft 177 kts 20°
2026-05-08 01:54 34.98395 -80.93275 3958 ft 171 kts 354°
2026-05-08 01:54 34.99608 -80.93350 3957 ft 177 kts 355°
2026-05-08 01:54 35.00840 -80.93433 3948 ft 177 kts 355°
2026-05-08 01:55 35.02069 -80.93530 3945 ft 176 kts 355°
2026-05-08 01:55 35.03290 -80.93633 3919 ft 177 kts 354°
2026-05-08 01:55 35.04517 -80.93739 3712 ft 175 kts 354°
2026-05-08 01:55 35.05712 -80.93842 3495 ft 171 kts 355°
2026-05-08 01:56 35.06894 -80.93945 3278 ft 171 kts 355°
2026-05-08 01:56 35.08081 -80.94049 3052 ft 170 kts 356°
2026-05-08 01:56 35.09262 -80.94151 2818 ft 169 kts 356°
2026-05-08 01:56 35.10411 -80.94251 2580 ft 159 kts 357°
2026-05-08 01:57 35.11459 -80.94342 2404 ft 142 kts 358°
2026-05-08 01:57 35.12388 -80.94423 2187 ft 128 kts 358°
2026-05-08 01:57 35.13266 -80.94498 2027 ft 129 kts 359°
2026-05-08 01:57 35.14152 -80.94575 1844 ft 126 kts 359°
2026-05-08 01:58 35.15007 -80.94652 1697 ft 122 kts
2026-05-08 01:58 35.15860 -80.94720 1614 ft 127 kts
2026-05-08 01:58 35.16737 -80.94793 1442 ft 125 kts 358°
2026-05-08 01:58 35.17615 -80.94865 1281 ft 129 kts 357°
2026-05-08 01:59 35.18497 -80.94945 1094 ft 131 kts 357°
2026-05-08 01:59 35.19395 -80.95027 908 ft 127 kts 357°
2026-05-08 01:59 35.20285 -80.95107 746 ft 129 kts 356°
2026-05-08 01:59 35.21085 -80.95178 735 ft 95 kts 356°
2026-05-08 02:00 35.21600 -80.95218 738 ft 53 kts 356°
2026-05-08 02:00 35.21850 -80.95233 741 ft 25 kts 11°
2026-05-08 02:00 35.21984 -80.95170 737 ft 14 kts 25°
2026-05-08 02:00 35.22050 -80.95131 735 ft 7 kts 26°
2026-05-08 02:01 35.22092 -80.95103 733 ft 7 kts 38°
2026-05-08 02:01 35.22115 -80.95053 733 ft 7 kts 73°
2026-05-08 02:01 35.22120 -80.94996 732 ft 7 kts 86°
2026-05-08 02:01 35.22155 -80.94975 732 ft 7 kts
2026-05-08 02:02 35.22160 -80.94937 732 ft 5 kts 95°
2026-05-08 02:02 35.22160 -80.94896 732 ft 5 kts 86°
2026-05-08 02:02 35.22162 -80.94855 731 ft 5 kts 85°
2026-05-08 02:02 35.22165 -80.94815 731 ft 5 kts 84°
2026-05-08 02:03 35.22168 -80.94777 731 ft 5 kts 85°
2026-05-08 02:03 35.22170 -80.94739 731 ft 4 kts 85°
2026-05-08 02:03 35.22187 -80.94712 730 ft 3 kts 37°
2026-05-08 02:03 35.22204 -80.94699 731 ft 1 kts 31°
2026-05-08 02:04 35.22210 -80.94695 731 ft 0 kts 30°
2026-05-08 02:04 35.22213 -80.94692 731 ft 1 kts 29°
2026-05-08 02:04 35.22218 -80.94689 731 ft 0 kts 30°